GFSSGP_con_mucape_171.txt.gz
CAPE
1098 1626 2289 1924 2110 114 21 155 134 332 425 360 389 548 449 182 33 28 216 140 185 185 294 997 1607 2143 1965 1842 2143 1745 1775 1523 1824 1872 1804 1702 1913 1919 1435 1313 1290 1329 1440 1718 1478 1192 1469 1557 1396
1613 1730 1627 1523 251 91 63 63 138 390 379 425 347 336 495 349 73 118 162 191 218 210 244 1216 1710 1913 1945 1791 1963 2119 1641 1738 1799 1920 1932 1868 1497 1220 1405 1015 834 1096 960 873 1038 1249 1387 1556 1688
1311 1360 1777 292 47 102 55 35 73 114 220 312 329 455 301 210 118 97 113 94 155 206 721 721 2023 2312 1902 2067 2142 1929 1692 1759 1423 1389 1332 945 691 1614 1228 977 1809 1667 1528 1423 1395 1211 1105 1047 1042
1668 2041 1486 59 39 44 60 39 25 15 74 280 350 459 210 185 207 66 56 94 178 219 450 1284 1919 1804 1869 1843 1810 1816 1714 1644 908 905 1265 1787 1576 1476 1434 1456 1529 1440 1434 1323 1070 963 968 1044 1110
1613 1500 286 55 13 34 56 78 129 111 255 215 354 387 365 258 224 17 11 22 109 452 613 1136 1761 1617 1860 1884 1891 1793 1754 1170 740 1699 1760 1614 1636 1659 1384 1188 1373 1334 1108 1035 1069 856 822 847 932
1278 475 102 93 50 12 129 149 444 248 404 449 428 284 263 270 65 25 25 3 25 464 875 757 1287 1681 1694 1720 1877 1753 1235 762 672 1616 1553 1198 1598 1639 1537 1357 1299 1304 1231 1152 1126 1068 998 933 875
1166 181 108 76 66 16 145 178 452 447 286 466 462 270 186 244 159 28 6 5 43 264 791 1160 1422 1147 1676 1727 1780 1740 1770 1670 1492 1257 1162 1366 1558 1487 1463 1560 1517 1414 1212 1206 1141 1076 1088 868 802
225 330 65 18 13 71 121 132 632 629 518 494 559 357 169 202 80 0 16 10 39 166 499 959 770 1558 1165 1155 1410 1363 1494 1527 1542 1428 1094 1164 1547 1395 1211 1494 1235 1094 1060 976 944 889 807 986 971
201 148 96 4 3 99 149 210 269 461 537 394 342 354 210 237 65 1 47 49 16 43 220 773 960 1350 1109 863 1128 1737 1356 1155 899 698 956 1042 438 705 675 792 1029 1088 1159 1421 1730 1970 2014 2033 2603
92 144 54 4 32 92 114 233 375 638 649 664 746 297 276 300 184 51 21 15 4 0 57 218 632 982 656 353 1490 1081 1338 1651 1172 1270 1505 1458 1290 1101 1019 1097 1594 1797 1874 2031 2090 1963 2166 2329 1275
193 201 31 32 95 86 98 216 304 285 924 642 532 353 200 77 141 108 29 13 9 7 0 74 328 998 515 872 1337 1615 1399 1426 1708 1972 2418 1900 1811 1809 1791 2119 1947 2461 1966 1683 1843 1761 1752 840 822
275 175 65 37 60 87 96 185 235 496 633 778 664 474 281 96 203 40 10 3 10 42 31 75 205 306 421 642 1438 1439 899 1330 1735 1754 2211 1918 2051 1557 1426 1658 2269 2073 1912 1522 1934 1702 1885 1382 1261
339 179 5 2 27 91 148 203 338 651 717 694 614 517 376 295 272 250 36 106 119 52 73 96 397 624 189 1077 1349 1086 525 1040 1082 1595 2173 2193 2313 2526 2452 1973 1741 1600 1277 1709 2306 1909 2020 1897 1563
339 298 49 25 56 86 156 276 315 618 753 663 680 465 428 484 285 226 130 20 131 116 205 171 320 259 157 600 691 1048 544 819 993 1293 1888 1985 2118 3192 3124 2997 2007 2512 1630 1090 1096 2039 1652 1401 1029
368 358 171 174 119 96 92 112 341 655 738 777 640 522 350 288 338 386 255 135 216 266 193 87 131 128 402 658 501 743 284 331 628 772 1297 1762 2362 2587 2720 1893 1778 2191 2550 2432 2647 1676 1962 1822 864
358 222 158 283 179 125 289 108 415 556 677 705 768 741 591 451 467 472 428 302 206 279 289 199 31 71 283 421 903 603 331 504 460 433 456 803 1532 1987 2255 1654 2066 2658 1657 1357 1475 964 1116 1287 1058
198 70 42 102 213 196 389 105 215 379 408 624 711 733 725 814 736 600 442 497 303 219 293 220 105 29 77 388 539 491 433 448 333 201 168 497 1633 1902 2042 1544 1736 2562 1712 1446 1661 1236 1066 785 624
154 172 103 114 119 193 248 136 201 204 199 292 417 545 584 644 601 781 753 661 580 438 189 445 327 413 355 270 595 433 231 246 209 170 199 618 1741 2284 2313 1774 1862 2163 1562 1730 1592 1822 1149 1049 500
117 55 75 91 46 97 175 331 404 270 144 120 175 304 429 505 641 649 594 606 646 601 268 394 631 1699 1008 762 502 274 114 114 157 169 236 666 1716 2020 2468 2175 1497 1493 1693 1423 2083 1809 2086 912 316
45 64 68 4 46 56 18 24 461 436 190 98 76 106 93 174 404 674 770 708 724 810 739 443 767 1438 1151 909 1518 791 474 202 260 310 714 1263 2128 2455 2534 2821 2481 1702 1209 1465 1716 2232 1550 510 709
46 56 16 20 0 0 0 1 82 409 213 28 94 157 102 49 214 458 652 792 784 979 1178 1343 1723 1728 1693 1589 1105 1107 977 957 637 497 623 992 1807 2198 2411 2917 3083 2906 2174 601 1683 1860 2175 663 646
52 11 1 1 0 21 0 6 0 161 228 48 9 55 204 112 145 349 519 653 620 720 1042 1443 2058 2403 2114 2594 1764 2712 1211 986 371 689 468 1385 1926 2383 2546 2785 2997 3216 2538 3177 2074 2026 2709 3552 1984
13 11 0 1 0 2 0 12 9 18 173 131 43 12 16 267 222 295 371 528 585 634 753 1077 2219 2525 2814 2732 2648 1740 1821 738 384 356 2430 2058 3207 2516 2286 2845 3069 3343 2854 3275 2593 3157 3383 2927 2234
3 0 0 0 0 10 20 3 171 7 43 176 105 50 51 125 278 333 418 438 488 500 646 927 2146 2397 2243 2166 1960 2341 2909 1991 977 1336 1397 1706 1701 1849 3067 2786 3128 3342 3210 3778 3221 3249 3405 3310 3156
7 3 5 7 5 24 36 3 27 0 0 28 189 88 70 144 242 383 524 592 628 501 512 640 2332 2324 1956 1760 1778 1805 2045 2189 2019 2327 2006 2893 1818 1723 2259 3132 3335 3536 3310 3116 3213 2877 2763 2775 3369
0 0 8 28 27 61 41 11 59 4 1 0 38 189 63 91 158 359 456 628 796 672 706 807 1967 2814 2314 1886 2393 2581 2812 1497 1505 2358 2232 2408 2094 2601 3061 3290 3115 2929 2868 2578 2147 1939 2125 3166 3006
0 0 1 26 43 48 46 2 5 0 0 0 0 59 195 105 200 396 529 675 776 1002 1029 1012 2057 2864 2643 2363 3207 3510 3144 3086 2557 3325 4040 2814 3972 2801 3151 2908 3094 2475 2165 2211 2627 2131 2306 2307 2289
0 0 0 8 43 66 65 1 12 0 0 0 4 0 104 225 219 347 569 798 881 951 1069 1266 1412 2548 2489 2561 3023 3209 3102 3116 3145 3144 3146 3965 3727 3214 3112 2645 2203 2034 2059 1890 1954 1804 2295 2113 1921
0 0 0 5 4 77 45 32 17 1 42 92 84 56 49 235 216 397 581 743 986 903 1084 1277 1487 2244 2801 3689 3660 3996 3189 3399 3540 3474 3732 3529 3108 2856 2308 2096 2235 2027 1912 1744 1836 1953 1770 1555 1244
0 0 0 3 10 3 64 72 0 1 0 7 83 138 147 300 226 403 646 981 1289 1278 1194 1427 1712 2229 3294 3124 3375 3258 3380 3310 3416 3765 3442 2634 2213 1876 2111 2131 1952 1852 1498 1473 835 477 233 164 152

GFSSGP_con_mucape_174.txt.gz
CAPE
1098 1304 2135 2320 1412 1067 82 104 190 395 366 301 359 272 77 49 35 1 149 157 157 196 311 1304 2331 2242 1827 2006 2017 2064 2184 2173 2360 2228 2265 2242 2336 2003 1672 1800 1712 1774 1813 1372 1353 1498 1333 1409 1585
978 1744 2016 1658 1079 189 145 205 306 253 298 313 415 371 73 125 55 91 135 151 185 208 306 421 1691 2008 1896 2177 2140 2115 1900 1843 1722 2244 1745 2191 2220 2252 1508 805 1077 1686 1051 1115 1053 1245 1527 1658 1640
1146 1578 1481 1859 188 57 35 45 8 77 95 295 417 322 219 71 87 100 121 129 146 181 542 961 1746 1742 1591 1892 1883 1853 2014 1911 1795 1820 1652 1546 1998 1906 1161 1706 1711 1728 1606 1577 1409 1292 1227 1102 1087
1678 1908 1774 281 24 60 43 31 11 290 152 350 256 339 180 110 54 40 123 153 174 205 475 1243 1654 2035 2009 1753 1721 1938 1780 1277 1299 1385 1670 1444 2056 2061 1728 1623 1527 1509 1408 1263 1099 1009 1063 1134 1015
1676 1601 673 12 10 41 24 16 176 235 245 363 362 282 238 121 33 49 66 148 165 245 1059 1437 1898 1821 1736 1803 1876 1723 1742 1353 1706 1596 1682 1527 1755 1875 1424 1476 1417 1305 1172 1117 975 898 849 826 852
992 1062 706 34 11 31 53 269 418 209 431 367 348 224 223 160 37 21 53 141 128 372 766 1088 1470 2040 1905 1890 1806 1761 1232 1051 1823 1777 1281 1563 1997 1737 1500 1213 1148 1121 1075 1072 990 921 974 867 829
614 348 280 55 0 63 61 261 312 223 340 342 252 197 151 56 30 23 15 120 359 549 769 1272 1419 1515 1739 1748 1803 1819 1552 1104 1019 1111 1022 1425 1510 1464 1417 1422 1375 1236 1109 1114 1058 965 1080 1022 1238
588 238 72 55 15 25 67 634 419 394 437 485 250 205 192 103 10 12 16 70 148 406 639 854 988 1331 1508 1302 1567 1885 1835 1699 1424 1020 1266 1640 1460 1269 1175 1647 1371 1111 1030 919 984 929 1475 1713 1988
96 49 5 8 14 25 41 291 321 311 522 682 434 241 191 33 0 18 10 42 120 216 477 846 661 1561 1606 1175 1110 1633 1256 1490 1489 1380 1110 1703 1084 1035 1146 1464 1093 746 1039 870 1542 2109 2533 2848 3073
29 6 0 0 15 77 118 106 362 710 578 549 412 298 177 4 0 41 58 21 0 17 148 442 825 1082 1159 167 1536 1729 1382 1453 840 1210 690 1106 1234 1611 1166 1022 1937 1795 1851 2033 2821 2527 2278 2858 963
38 0 6 35 32 33 95 144 292 621 900 629 374 359 252 51 19 8 1 19 4 2 58 93 766 1082 733 1542 2138 1297 890 1918 2304 1907 1684 2221 2325 1196 1960 575 1573 2115 2517 1714 1884 152 314 916 1757
11 0 2 14 35 55 119 105 488 755 834 592 397 481 281 200 94 24 0 19 16 4 0 8 328 813 395 1467 675 620 1052 415 637 2244 2600 3492 2590 2510 2305 1270 1916 2638 2448 2726 1242 450 555 1650 1947
11 0 1 15 40 96 128 219 418 502 670 515 364 327 274 122 53 31 1 2 6 1 0 50 1161 1397 1217 1498 73 84 563 1535 2032 2798 2733 3206 2657 2575 2769 2463 2611 2996 1666 2205 2327 2135 2684 1812 1864
25 0 0 4 48 75 204 276 484 497 659 673 434 398 269 127 126 136 17 0 1 72 36 178 1017 987 843 2048 1947 1674 2051 2028 2647 2930 2778 2639 3044 3274 3306 2439 2483 2328 1253 2269 2148 2730 2618 2644 1144
84 54 41 61 90 145 160 171 484 617 665 662 569 465 502 629 258 227 109 137 98 137 151 590 828 386 1237 1779 1685 1389 2110 1165 1856 2401 2786 2404 3057 3137 2653 2095 2885 2586 2899 3046 3636 3145 3002 2711 1977
97 84 78 65 123 97 113 249 499 655 674 769 747 644 635 447 861 271 275 117 420 326 663 798 138 212 1003 1610 1555 1792 2089 1719 1983 1681 1691 1910 2151 3299 3029 2365 720 2159 2662 2176 2129 2269 2237 1925 1374
10 43 71 186 192 311 207 166 396 449 528 711 774 680 619 501 578 578 272 150 256 511 469 1185 789 499 1107 1360 1775 2136 1905 1528 1197 1512 1184 2483 2044 2805 2787 2254 2465 2695 2892 2849 2175 2757 2522 1964 1704
17 30 24 43 66 316 94 88 267 331 392 524 652 645 604 531 502 598 518 407 345 192 821 1136 1062 1441 1713 1225 1900 1654 1607 1608 1380 1380 1384 2053 2619 3102 3395 2388 2041 2901 2605 1248 1086 2236 2667 2160 1744
0 0 72 134 26 150 68 130 174 147 110 222 394 528 518 504 703 650 510 480 427 498 818 1256 1510 1945 1972 1414 1265 1268 902 1022 1270 1622 1541 1508 2459 3197 3500 3037 2948 3274 2321 2934 2962 3016 2857 2471 2098
0 12 107 90 0 70 127 301 167 72 51 44 111 294 352 425 437 597 1075 990 802 697 990 1347 1542 2155 1733 1542 2094 2014 2395 1755 2415 2179 2748 2111 2508 3541 3265 3143 3391 3517 2953 2698 2251 2880 2671 2101 2007
65 63 13 0 0 1 34 283 315 144 54 7 2 17 62 166 532 836 900 975 909 959 1169 1044 1456 1892 1919 1829 1949 2796 2205 2063 1437 1498 1315 1563 2380 3490 3416 3345 3583 3415 3836 2578 3076 3015 2887 2069 2126
51 3 6 0 0 1 0 18 314 239 41 35 16 0 0 67 412 1022 1017 1178 973 1214 1442 1394 1495 1550 1940 2000 1525 2521 1382 1492 1223 2453 2005 2852 2807 2859 3297 4013 3940 4097 3687 3639 3091 3218 3231 3156 2329
0 0 0 0 0 3 1 54 14 260 107 5 0 14 6 24 159 375 550 1096 1092 1067 1401 1834 2567 2440 2210 2140 2028 1674 2624 1589 1681 1552 2128 3593 3816 3898 3310 3172 3293 3750 3396 4120 4120 3450 3665 3081 2659
0 1 0 0 0 0 0 50 126 40 88 9 0 0 55 37 64 417 621 890 915 914 1061 1705 2703 2874 2885 3148 2770 2643 2987 2408 1650 2195 3012 2672 2623 3734 3305 1726 2165 2170 3588 3935 3660 3478 3294 3554 2755
1 12 4 0 0 0 13 46 261 68 0 21 8 2 0 141 140 394 608 738 877 814 939 1468 2459 2765 2980 2744 2896 2788 2672 3008 3382 3169 2426 3422 2612 2294 2235 1443 676 1620 3226 3276 3402 3236 3057 2327 2183
0 10 20 4 0 1 68 63 58 1 0 0 81 8 0 0 121 218 553 709 877 838 1024 1197 2433 2710 2717 2688 2706 2952 2941 2638 2369 2335 2365 2355 3339 3312 3426 3154 2796 2616 2787 2631 2959 2785 2404 2227 1772
0 7 1 2 8 13 55 59 59 4 0 0 4 101 71 108 77 300 425 764 858 818 979 1102 2562 2847 2870 2697 2702 2827 2935 2801 2436 2905 3854 2975 3956 3198 3857 3584 3008 2474 2562 2646 2564 2500 1910 2182 2308
0 0 0 0 13 88 54 116 35 174 0 0 0 149 229 263 134 241 425 787 979 1016 1131 1286 2305 2708 2985 2840 2890 2999 3138 3306 3267 3549 3954 3978 4193 3902 3688 3047 2720 2421 2339 2118 2316 2149 2178 2331 2094
0 0 0 0 0 12 133 69 125 244 75 0 0 0 467 314 246 324 485 903 974 1105 1163 1337 1788 2946 3115 3336 3627 3664 3806 3957 4096 4052 4181 3988 3474 2931 2517 2754 2328 1719 2006 2186 2126 1941 1473 876 967
0 0 0 0 0 1 53 14 7 121 2 42 73 324 76 446 277 420 454 925 1129 1143 1256 1546 1832 2706 3293 3769 4312 4397 4277 4211 4252 4142 3629 3110 2780 2301 2345 2070 1685 1807 1615 1436 932 677 294 73 108

GFSSGP_con_mucape_180.txt.gz
CAPE
1350 1195 1348 1651 198 212 9 45 145 231 259 192 156 59 91 21 12 2 17 44 84 299 931 1499 1977 1698 1640 1702 1586 1737 1585 1550 1584 2012 1923 1733 1707 1922 1681 1601 1654 1625 1702 1470 1453 1680 1672 1588 1551
1183 1448 1880 1447 254 115 118 81 142 195 117 97 58 48 26 51 35 79 22 60 43 377 1205 1518 1900 1844 1199 1457 1389 1920 1664 1757 1712 1564 1363 1238 1460 1724 1789 1946 1465 1319 1323 1310 1552 1682 1758 1707 1683
867 1290 817 965 187 57 197 269 388 145 212 198 91 18 24 52 54 55 10 50 28 156 793 765 1573 1559 1421 1485 1613 1660 1743 1680 1104 1072 1740 985 1087 770 880 846 1022 1261 1670 1692 1638 1491 1369 1310 1306
1167 1039 1118 989 105 78 119 470 602 339 258 110 8 3 50 58 58 32 43 23 20 303 780 1850 1749 1629 1416 1443 1591 1249 1023 643 658 1584 1341 1172 1814 1809 1456 1392 1660 1645 1478 1377 1276 1171 1265 1335 1413
1034 1135 924 635 239 230 382 464 365 218 153 62 40 6 17 54 23 37 30 10 77 264 652 1372 1981 1503 1582 1452 1308 609 1193 1552 1555 1493 1487 1545 1759 1630 1552 1645 1609 1477 1286 1204 1168 1216 1226 1237 1421
845 463 537 85 355 537 509 426 359 213 53 23 0 2 43 32 14 37 24 63 151 380 891 1204 1440 1487 1445 1448 1106 754 1694 1696 1714 1758 1828 1543 1328 1642 1571 1367 1259 1237 1268 1280 1287 1300 1274 1364 1578
799 175 148 213 489 490 502 352 220 168 101 21 0 5 53 22 13 32 53 103 287 634 833 1009 1063 1131 1420 1453 769 619 1670 1668 1496 1260 1526 1521 1454 1367 1318 1280 1276 1215 1190 1197 1316 1243 1316 1553 1857
677 64 80 308 408 445 502 464 314 150 73 34 0 4 54 1 5 16 52 141 274 385 618 747 912 902 1243 1343 1325 924 887 1075 1189 1026 1429 1573 1645 1439 1444 1772 1854 1568 1404 1321 1199 1303 1643 1816 1915
145 24 14 319 314 412 455 429 361 209 76 147 236 0 0 19 5 21 66 225 268 377 527 622 601 759 733 1255 1528 1880 1624 1434 1006 849 1146 1540 1298 1095 1264 1532 1685 1547 1105 1102 1038 1396 757 339 661
23 18 11 407 466 472 495 470 436 319 280 212 199 0 0 0 0 2 56 195 160 103 172 289 483 797 536 841 708 480 801 875 564 443 534 564 663 842 1100 1415 1746 1633 1182 1811 1836 1530 1242 285 231
0 12 47 447 477 545 520 482 478 358 293 164 13 0 0 0 0 0 11 108 44 128 242 345 681 424 189 365 435 433 526 633 519 272 628 1075 1091 925 1195 908 497 321 946 1429 1673 1174 260 74 467
6 10 10 40 336 455 496 488 413 576 206 62 16 1 0 0 0 0 0 10 54 144 292 405 618 356 375 538 383 339 533 597 710 748 834 1179 895 923 946 743 861 1166 818 639 1051 884 616 590 677
3 4 98 496 739 619 683 669 605 450 201 85 8 0 0 0 0 0 0 5 9 9 24 307 395 343 321 442 268 164 287 258 559 806 1106 1286 1152 1035 1205 1314 1172 735 808 498 889 802 618 745 710
0 8 152 423 635 733 669 584 504 414 248 99 0 0 0 0 0 0 0 0 1 0 0 128 186 206 125 19 94 340 420 659 696 910 1267 1407 1427 1403 1566 1157 723 125 993 938 1070 886 919 1236 1369
0 0 102 312 419 610 665 533 527 438 366 216 52 19 1 0 0 0 0 0 0 0 0 30 189 226 272 304 111 312 371 679 592 1100 1456 1330 1184 1262 1645 1228 1079 522 777 989 1176 793 1269 1427 1065
2 0 10 165 392 477 362 635 557 426 415 635 566 268 228 41 8 0 0 0 0 0 0 0 293 33 197 752 502 246 325 364 265 337 525 912 1136 1213 1180 1234 1365 1361 946 899 1267 1228 1392 1008 835
5 0 1 13 241 385 366 704 604 438 323 243 244 312 268 145 66 41 0 0 5 0 0 16 267 2 0 405 347 42 433 446 238 114 107 509 954 1448 1379 1534 1640 1651 1465 1197 1211 1235 1227 1242 908
2 18 13 31 98 246 468 553 709 545 438 278 249 291 235 130 76 86 11 1 0 0 0 2 152 14 0 1 0 139 549 446 257 243 177 360 678 830 1432 1732 1623 1666 1543 1383 929 934 1252 1464 1255
41 12 2 36 96 134 185 567 709 588 581 418 276 249 232 175 126 57 43 4 0 0 0 0 69 1 0 11 0 10 197 146 91 31 193 498 119 651 1947 1885 1553 1887 1775 1585 1356 1260 1087 820 1145
0 0 1 48 84 109 363 539 630 618 637 472 396 290 214 158 132 53 22 0 0 0 0 0 53 27 0 0 0 5 4 51 83 419 430 420 553 615 1307 1825 1789 1943 2092 1798 1830 1846 1186 1354 1172
0 0 27 35 7 52 228 297 476 568 515 451 404 336 260 208 167 113 115 22 0 4 11 0 3 2 0 0 0 26 357 507 489 322 248 104 379 842 948 1585 1751 2176 2313 2148 2074 1917 1602 1438 1627
7 11 8 29 30 3 30 30 243 315 343 362 419 391 302 226 250 156 169 109 2 0 1 0 0 0 139 100 224 313 282 503 608 304 43 375 600 932 1202 1718 1926 572 1929 1426 1877 1982 1856 1668 1356
0 0 3 14 11 3 0 45 100 157 122 201 290 365 287 244 298 209 205 172 53 43 10 24 1 9 138 14 177 177 157 178 278 433 749 658 807 1306 1383 1751 1226 1015 779 295 1205 1631 1782 1421 1458
6 5 0 5 26 0 9 115 58 31 15 53 126 289 235 223 300 233 248 277 213 155 125 98 182 144 193 552 231 248 404 664 909 1139 1055 949 1021 1662 2035 1874 1667 1361 1005 1031 1364 1835 1594 1453 1199
1 0 0 0 0 0 0 73 1 22 22 1 7 132 133 148 320 333 342 305 287 268 284 173 180 192 284 383 522 559 403 339 367 400 665 878 860 1249 1851 1435 1310 1477 1415 1593 1909 1716 1177 1067 874
0 0 0 0 0 0 0 0 0 16 37 7 0 5 4 141 191 282 342 344 366 419 368 374 289 321 377 408 641 538 613 745 1125 1684 1908 1686 1376 1313 1563 1486 1489 1605 1751 1734 1365 1220 956 824 641
0 0 0 1 0 0 0 0 41 0 52 16 0 0 0 149 199 262 233 264 431 465 490 536 538 523 498 590 710 1317 1075 1142 1324 1366 1572 1607 1293 1190 1781 2082 1833 1807 1585 1379 1067 910 309 21 0
0 0 0 0 0 0 0 0 0 12 32 15 0 0 0 31 135 250 257 260 277 298 349 618 834 1032 1085 1325 1339 1288 1774 2080 2120 1935 1739 1927 2532 2478 2325 2185 2038 1938 1678 1018 721 236 50 6 0
0 0 0 0 0 0 0 0 0 1 2 0 0 0 0 0 9 123 194 217 326 342 377 437 816 1160 1349 1529 1658 1699 1662 1912 2137 2067 1812 1967 2265 2366 2272 2265 2135 1680 939 321 152 30 0 0 0
0 0 0 0 0 0 0 0 0 0 0 0 0 0 0 0 0 19 87 141 247 284 287 372 801 1089 1264 1478 1568 1707 1784 1816 2001 2034 2057 2724 2959 2631 2333 1809 1655 888 274 75 0 0 0 0 0

GFSSGP_con_mucape_183.txt.gz
CAPE
1259 855 891 1237 134 1 12 63 130 162 130 130 56 21 30 39 16 0 29 55 270 401 547 929 1769 1644 1408 1657 1637 1676 1234 1809 1389 1812 1600 1956 2136 1997 2078 1917 1866 2051 1689 1583 1892 1833 1744 1644 1604
1191 1292 1760 1105 116 57 40 71 135 124 83 66 35 30 29 51 42 44 70 93 239 469 796 1217 1927 1806 1495 1691 1587 1771 1748 1623 1437 1281 1484 2071 2084 2038 1625 1354 1444 1387 1276 1441 1596 1662 1583 1557 1503
1052 1265 773 791 85 118 142 107 226 123 45 108 30 24 27 62 43 37 35 92 325 865 1089 1174 1214 1372 1504 1686 1675 1648 1626 929 1313 1407 769 841 1199 1199 1376 1417 1123 1320 1662 1741 1637 1486 1370 1308 1367
776 740 745 636 264 83 195 245 106 194 111 49 7 15 59 113 48 35 81 67 297 727 742 1468 1824 1438 1440 1700 1675 1498 1081 659 1723 1226 1292 1890 1425 1257 1112 1465 1966 1716 1543 1420 1322 1338 1413 1470 1513
903 976 647 186 167 227 352 344 277 217 47 24 24 21 42 69 34 56 68 74 291 588 687 1259 1631 1555 1554 1181 504 483 982 1319 1811 1033 1543 2048 1902 1588 1614 1591 1593 1538 1412 1298 1288 1314 1357 1387 1597
768 588 180 242 325 459 433 371 288 134 61 20 1 0 33 45 5 20 26 115 267 604 728 1155 1462 1540 1392 1253 677 1606 1655 1523 1670 1878 1585 1488 1773 1744 1771 1557 1425 1328 1340 1375 1375 1358 1389 1453 1604
761 390 132 378 494 466 386 263 128 32 24 13 9 10 59 49 18 3 103 169 334 547 832 1090 1323 1114 1503 1030 580 1710 1683 1667 1467 1559 1591 1408 1359 1489 1507 1370 1329 1253 1169 1180 1121 1298 1364 1662 1970
887 117 254 442 412 434 314 240 138 47 12 27 22 0 30 72 43 43 132 223 334 530 779 968 1028 1104 1000 586 560 977 1653 1486 1221 1209 1494 1768 1681 1455 1463 1507 1609 1568 1537 1462 1347 1232 1688 1741 942
441 41 242 351 377 385 391 238 175 98 5 45 31 1 12 62 48 105 144 248 367 567 504 689 677 991 1108 1306 1401 1350 1221 1109 914 1008 1270 1595 1446 1040 1313 1546 1853 1675 1621 1122 1228 1535 1895 1544 417
10 2 7 413 383 451 440 324 245 177 116 38 131 33 40 30 77 84 191 258 351 461 368 426 591 618 611 1093 1275 997 1076 955 627 593 472 642 549 697 1169 1600 1926 1706 1679 2109 2342 2531 2327 1899 305
0 0 50 423 429 455 403 401 360 236 190 93 156 113 36 43 71 28 153 242 243 228 264 422 644 629 258 483 152 319 446 514 366 423 765 991 1026 1074 894 842 737 523 751 1075 1359 1420 1129 380 262
15 135 475 508 549 481 452 392 337 363 199 231 104 4 20 39 59 12 123 129 68 145 304 552 662 312 186 266 341 348 443 543 622 643 737 968 904 696 812 846 892 1057 984 564 322 639 838 565 479
33 262 370 656 551 509 490 473 443 471 72 73 5 0 0 34 26 0 11 3 25 208 326 564 571 364 299 438 250 383 183 387 528 642 836 1148 1022 1071 1143 1115 746 488 229 610 665 817 765 638 859
15 548 559 546 699 676 636 588 430 195 59 34 0 6 6 2 0 0 0 0 2 114 210 485 369 302 212 100 110 198 326 412 631 766 923 1288 1281 1160 1326 1276 988 523 573 897 955 1006 946 990 1317
215 403 726 767 805 768 511 430 471 274 117 42 19 6 5 5 3 0 0 3 0 0 61 248 110 205 72 0 65 241 288 417 474 636 1037 1310 1223 998 1041 1316 1096 1111 672 612 881 1107 850 1246 918
56 198 210 414 537 648 279 277 497 341 219 94 24 17 8 5 11 10 0 2 0 0 0 22 137 19 24 122 55 152 202 290 219 284 280 247 894 1018 1226 1207 1431 1503 1263 1089 1032 1040 1142 1019 1097
0 4 14 227 367 518 363 427 582 452 389 312 161 93 29 13 0 0 0 0 0 0 0 0 90 22 18 220 253 46 142 287 215 220 87 132 626 932 1191 1323 1694 1636 1335 1365 1233 908 868 1145 1133
0 21 23 25 161 389 481 503 572 464 419 407 350 257 277 180 43 9 0 0 0 0 0 0 1 88 0 0 47 1 107 218 143 124 91 57 187 843 764 1683 1699 1551 1625 1266 1072 1040 1046 1142 863
0 3 36 40 39 227 374 654 579 475 385 319 201 229 232 168 116 31 19 0 0 0 0 0 0 0 0 0 0 0 0 50 69 67 42 433 558 197 632 1654 1667 1559 1845 1776 1403 1615 1234 965 1147
3 0 24 44 31 114 376 636 645 523 357 291 214 190 175 116 76 33 39 4 0 0 0 0 0 0 0 0 0 0 0 0 2 41 297 327 227 330 527 991 1484 1719 1827 1863 1872 1767 1401 1372 1267
0 0 2 2 21 91 360 408 648 582 507 387 290 196 120 105 110 87 57 1 0 0 0 0 0 0 0 0 0 0 0 141 323 439 432 289 114 644 814 749 1519 1789 1691 1655 1611 1672 1660 1572 1464
0 0 0 16 25 37 98 32 368 445 464 392 391 298 114 53 44 84 68 3 2 0 0 0 0 0 0 0 0 0 0 17 45 68 232 309 579 653 794 1013 1495 1725 1214 1254 667 1595 1599 1386 1275
31 29 45 23 39 38 27 0 0 169 344 333 396 407 261 151 68 69 88 31 5 0 0 0 0 0 0 0 0 0 1 46 74 170 275 347 620 1110 1425 1273 1462 1675 1479 1050 965 1407 1419 1402 1397
24 25 17 16 0 0 0 0 0 20 68 160 268 306 230 224 152 149 161 106 44 10 0 0 6 0 0 0 0 13 37 74 101 281 600 782 931 867 1460 1831 1896 1632 1373 1311 1667 1738 1531 1183 1090
0 5 1 0 0 0 0 0 0 2 16 37 102 188 250 235 204 183 232 149 149 73 23 0 0 0 0 2 2 113 152 114 186 371 640 838 681 786 1201 1596 1429 1250 1443 1674 1674 1443 1270 1146 693
0 0 0 0 0 0 0 0 1 3 7 0 13 38 149 216 193 172 225 216 196 171 82 54 42 25 4 23 137 134 133 180 290 373 405 605 1385 1714 1240 1442 1560 1693 1680 1773 1653 1444 1031 573 17
0 0 0 0 0 0 0 0 0 0 0 0 0 26 75 122 159 139 202 214 176 219 202 193 172 131 150 135 219 292 349 455 517 663 995 1368 1780 1747 1469 1802 2289 2251 2099 1907 1948 1076 555 5 0
0 0 0 0 0 0 0 0 0 7 0 0 0 0 0 49 67 146 211 224 214 221 211 241 252 264 279 211 260 423 514 513 612 815 1071 1543 1591 1822 2377 2468 2249 2097 2416 1912 990 340 7 0 0
0 0 0 0 0 0 0 0 0 8 15 15 0 0 0 0 6 75 162 207 249 235 229 264 332 362 425 454 434 555 828 1155 1198 1387 1894 1966 1904 2425 2185 2194 2343 2154 1741 1002 79 0 0 0 0
0 0 0 0 0 0 0 0 0 0 9 21 7 0 0 0 0 23 88 121 147 215 288 318 430 523 622 633 824 1050 1112 1348 1603 1807 2036 1966 1786 2058 2279 2531 1932 1681 1073 88 0 0 0 0 0

GFSSGP_con_mucape_186.txt.gz
CAPE
1010 552 530 942 22 0 2 41 105 68 82 90 49 16 39 37 20 5 4 46 264 301 553 1096 1483 1751 1651 1672 1201 1313 1473 1121 1293 1703 2000 2145 2054 2127 1723 1887 2212 1777 1663 1878 1862 1787 1576 1593 1648
1023 572 1596 989 32 4 0 44 52 57 75 49 46 43 57 80 47 39 43 162 259 362 657 913 1672 1789 1649 1566 1547 1799 1847 1772 1327 1966 1983 1641 1352 1374 1479 1564 1482 1227 1400 1528 1632 1587 1485 1503 1399
1174 1362 772 545 54 37 57 43 79 62 54 97 49 28 42 76 33 41 46 151 290 627 871 946 1392 1489 1737 1618 1738 1660 985 1346 925 992 1559 1666 1728 1891 1469 1227 1294 1667 1800 1629 1471 1424 1424 1369 1535
1201 741 648 207 121 62 108 104 161 77 97 62 42 50 86 110 18 48 94 207 503 777 885 1510 1439 1407 1539 1726 1810 1381 669 1883 1076 1205 1345 995 931 886 1053 1936 1971 1683 1570 1477 1461 1513 1525 1602 1675
853 887 307 137 113 250 238 180 126 118 60 48 37 34 60 101 58 83 91 270 537 446 845 1097 1841 1422 1425 1213 753 410 1011 1933 986 1548 2014 2035 1569 1495 1624 1653 1666 1625 1441 1352 1390 1364 1428 1510 1581
669 477 175 121 297 355 326 161 229 142 34 25 13 8 84 73 38 60 108 231 407 375 856 1002 1649 1528 1308 407 1318 1493 1534 1573 1767 1545 1463 1885 1807 1796 1717 1494 1335 1361 1342 1304 1255 1356 1353 1459 1525
634 390 193 254 417 321 326 237 228 99 10 9 0 22 89 31 7 47 125 230 333 396 789 1093 1276 1276 1443 584 1589 1755 1818 1690 1725 1687 1551 1427 1453 1507 1410 1284 1265 1171 1153 1128 1110 1133 1346 1679 1767
700 279 340 406 435 356 341 220 69 0 0 6 11 18 46 44 12 98 157 219 270 460 753 1077 1065 1174 993 417 928 1871 1639 1417 1215 1498 1640 1866 1699 1522 1503 1559 1445 1330 1537 1354 1275 1276 1358 1772 862
678 47 328 345 390 350 272 159 111 49 14 11 16 19 53 45 59 153 121 179 304 512 541 862 827 1078 980 1139 793 947 1043 946 987 1164 1438 1481 1251 1058 1110 1391 1839 1967 1949 1814 1344 1628 2184 2269 1180
42 0 8 283 365 388 315 191 158 48 49 26 50 75 47 17 145 140 98 161 276 376 376 544 613 610 919 1297 1191 1094 1107 885 564 504 408 552 477 600 1166 1711 2003 1602 1072 661 1817 2404 2037 1118 241
0 0 0 356 405 428 300 287 233 57 46 0 39 64 40 19 81 101 158 191 247 317 324 385 480 477 381 622 108 301 359 399 341 595 763 808 893 953 825 752 688 685 932 986 1106 1019 984 722 349
0 9 345 609 559 451 400 366 192 215 222 97 53 6 24 37 67 45 113 202 266 260 316 438 489 155 81 248 321 369 435 489 463 605 652 833 1034 718 869 965 931 960 1134 966 529 692 742 775 576
90 298 561 591 523 461 436 406 252 233 40 91 99 44 8 44 26 9 160 164 112 110 307 509 489 292 140 275 250 351 273 218 395 545 741 1018 1093 1076 1085 1174 887 570 382 685 788 964 905 859 974
311 465 651 601 596 519 391 353 348 267 15 181 129 68 40 30 9 0 84 41 20 164 327 492 431 254 227 287 195 63 204 400 564 700 862 980 1206 1136 996 1261 1018 961 649 565 753 1020 1037 962 1230
653 666 776 702 695 618 404 224 259 125 42 22 0 0 0 0 0 1 1 5 11 131 191 428 280 249 35 0 15 228 295 311 437 373 767 1025 1092 1028 916 1130 1191 1301 1019 941 861 1036 1061 1135 1048
570 648 631 730 760 631 224 34 345 145 72 41 11 6 7 4 9 0 0 0 0 27 72 263 108 104 106 16 48 171 112 157 196 208 114 107 323 740 926 1048 1516 1513 1261 1147 1213 1071 1028 994 1164
178 41 53 482 616 482 414 186 431 229 120 57 29 18 9 2 0 0 0 0 0 0 0 16 10 70 8 3 171 75 32 109 173 140 136 109 248 755 1034 1065 1633 1513 1482 1334 1022 940 889 1013 1130
7 0 0 68 222 510 474 290 498 308 203 94 67 27 1 0 0 0 0 0 0 0 0 0 0 29 0 0 28 16 3 10 107 112 113 75 295 398 474 814 1629 1651 1623 1764 1479 1160 1447 1050 1129
0 0 4 0 43 352 344 379 537 409 314 240 248 131 72 1 0 0 0 0 0 0 0 0 0 0 7 0 0 0 0 0 21 33 37 207 317 221 236 1142 1351 1540 1725 1862 1806 1695 1382 1271 1247
0 0 1 2 4 94 197 415 532 475 348 258 214 204 165 114 53 4 0 0 0 0 0 0 0 0 0 0 0 0 0 0 0 21 112 342 367 262 613 757 1062 1448 1700 1474 1683 1688 1610 1408 1465
0 6 17 0 0 97 267 261 567 485 398 261 194 140 98 83 36 0 0 0 0 0 0 0 0 0 0 0 0 0 0 17 31 83 205 236 230 377 711 814 996 1446 1455 1387 1050 1465 1548 1549 1425
0 0 10 0 0 8 85 33 165 479 427 306 176 186 95 44 45 30 0 0 7 0 0 0 0 0 0 0 0 0 0 12 5 45 62 98 350 462 1037 1270 1124 1337 1509 1569 1191 1322 1429 1378 1386
6 0 39 35 11 10 48 19 8 149 354 303 241 213 226 80 18 9 29 5 5 0 0 0 0 0 0 0 0 17 3 20 41 53 84 123 235 615 914 1484 1596 1595 1829 1386 1331 1654 1568 1343 1139
1 63 33 4 12 0 2 10 0 100 118 137 161 168 158 219 74 0 4 37 29 17 2 0 0 0 0 0 0 15 103 49 45 64 90 212 513 924 680 1205 1557 1421 1265 1355 1785 1590 1469 1270 793
40 46 5 0 0 0 0 0 0 0 1 34 63 69 179 221 204 67 21 35 28 24 4 0 0 0 0 0 22 26 51 76 51 82 117 247 422 556 989 1317 1401 1389 1439 1617 1835 1809 1944 1031 210
4 13 0 0 0 0 0 0 0 0 0 0 0 0 115 208 217 155 102 70 89 58 42 17 0 0 0 15 22 35 44 64 82 154 202 314 414 846 1524 1545 1268 1647 2041 2139 1982 2000 1229 426 0
0 0 0 0 0 0 0 0 0 0 0 0 0 0 35 165 188 157 138 83 84 96 79 53 16 0 1 14 31 40 39 70 168 261 336 542 864 1234 1575 1553 1933 2234 2168 2003 1447 1195 402 0 0
0 4 0 0 0 0 0 0 0 1 0 0 0 0 0 63 122 120 117 81 80 107 74 97 32 12 10 17 29 45 102 202 314 459 550 762 958 1594 1731 1957 2350 2144 2027 1839 1261 615 0 0 0
0 0 0 0 0 0 0 0 0 8 0 0 0 0 0 0 41 73 67 51 71 105 78 75 87 54 64 113 139 168 229 283 389 591 699 986 1663 1932 1825 2088 1941 1932 2129 1561 768 0 0 0 0
0 0 0 0 0 0 0 0 0 0 0 0 0 0 0 0 0 0 6 34 53 82 95 68 79 130 149 206 248 308 342 718 790 871 1046 1453 1944 1968 1999 1858 2259 2035 1404 1060 5 0 0 0 0